SAS431 ESGG-EKCH

Flight info

Callsign SAS431
Flight time 0h 30m
Altitude 19000
Route TOPLA L996 ERNOV
Aircraft A319/M-SDE3FGHIRWY/LB1

Departure

Time 2026-04-26 19:11
Airport Göteborg Landvetter Airport (ESGG)

Arrival

Time 2026-04-26 19:41
Airport Copenhagen Kastrup Airport (EKCH)
Time Latitude Longitude Altitude Speed Heading
2026-04-26 18:45 57.66337 12.28679 516 ft 0 kts 295°
2026-04-26 18:59 57.66328 12.28713 516 ft 4 kts 295°
2026-04-26 18:59 57.66318 12.28750 516 ft 3 kts 297°
2026-04-26 18:59 57.66303 12.28782 516 ft 4 kts 349°
2026-04-26 18:59 57.66285 12.28780 516 ft 1 kts 26°
2026-04-26 19:00 57.66288 12.28782 516 ft 0 kts 26°
2026-04-26 19:04 57.66296 12.28790 516 ft 5 kts 26°
2026-04-26 19:04 57.66364 12.28851 516 ft 16 kts 25°
2026-04-26 19:04 57.66486 12.28956 516 ft 19 kts 15°
2026-04-26 19:04 57.66587 12.28969 516 ft 8 kts 341°
2026-04-26 19:05 57.66750 12.28917 516 ft 18 kts 26°
2026-04-26 19:05 57.66830 12.28989 516 ft 21 kts 26°
2026-04-26 19:05 57.67021 12.29166 516 ft 25 kts 26°
2026-04-26 19:06 57.67130 12.29264 516 ft 27 kts 26°
2026-04-26 19:06 57.67267 12.29390 516 ft 16 kts 26°
2026-04-26 19:06 57.67376 12.29489 516 ft 19 kts 26°
2026-04-26 19:06 57.67483 12.29585 516 ft 10 kts 25°
2026-04-26 19:07 57.67547 12.29557 516 ft 12 kts 306°
2026-04-26 19:07 57.67580 12.29453 516 ft 3 kts 298°
2026-04-26 19:07 57.67588 12.29420 516 ft 0 kts 289°
2026-04-26 19:09 57.67590 12.29395 516 ft 4 kts 276°
2026-04-26 19:09 57.67589 12.29309 516 ft 9 kts 268°
2026-04-26 19:09 57.67584 12.29205 516 ft 9 kts 251°
2026-04-26 19:10 57.67551 12.29142 516 ft 2 kts 215°
2026-04-26 19:10 57.67526 12.29115 516 ft 8 kts 208°
2026-04-26 19:10 57.67277 12.28885 515 ft 76 kts 206°
2026-04-26 19:10 57.66600 12.28268 512 ft 138 kts 206°
2026-04-26 19:11 57.65619 12.27373 788 ft 161 kts 208°
2026-04-26 19:11 57.64625 12.26479 1567 ft 159 kts 209°
2026-04-26 19:11 57.63564 12.25511 1965 ft 181 kts 210°
2026-04-26 19:11 57.62365 12.24392 2347 ft 205 kts 209°
2026-04-26 19:12 57.61015 12.23276 3007 ft 218 kts 196°
2026-04-26 19:12 57.59498 12.22872 3844 ft 222 kts 186°
2026-04-26 19:12 57.57941 12.22684 4660 ft 228 kts 184°
2026-04-26 19:12 57.56333 12.22540 4964 ft 232 kts 183°
2026-04-26 19:13 57.54692 12.22748 5204 ft 248 kts 169°
2026-04-26 19:13 57.52905 12.23327 5680 ft 272 kts 171°
2026-04-26 19:13 57.50993 12.23882 6531 ft 282 kts 172°
2026-04-26 19:13 57.49036 12.24419 7440 ft 288 kts 173°
2026-04-26 19:14 57.47057 12.24951 8327 ft 294 kts 173°
2026-04-26 19:14 57.45012 12.25495 9205 ft 300 kts 174°
2026-04-26 19:14 57.42917 12.26048 9975 ft 312 kts 174°
2026-04-26 19:14 57.41426 12.26439 10263 ft 326 kts 174°
2026-04-26 19:15 57.38395 12.27244 11174 ft 337 kts 174°
2026-04-26 19:15 57.36060 12.27873 11956 ft 342 kts 174°
2026-04-26 19:15 57.33694 12.28512 12732 ft 346 kts 174°
2026-04-26 19:15 57.31291 12.29157 13493 ft 351 kts 174°
2026-04-26 19:16 57.28857 12.29807 14234 ft 356 kts 175°
2026-04-26 19:16 57.26392 12.30464 14899 ft 360 kts 175°
2026-04-26 19:16 57.23897 12.31134 15590 ft 364 kts 175°
2026-04-26 19:16 57.21378 12.31808 16262 ft 368 kts 175°
2026-04-26 19:17 57.18831 12.32484 16945 ft 372 kts 175°
2026-04-26 19:17 57.16253 12.33164 17601 ft 376 kts 175°
2026-04-26 19:17 57.13650 12.33850 18263 ft 380 kts 175°
2026-04-26 19:17 57.11019 12.34536 18874 ft 384 kts 176°
2026-04-26 19:18 57.08358 12.35209 19173 ft 386 kts 176°
2026-04-26 19:18 57.05693 12.35873 19259 ft 386 kts 176°
2026-04-26 19:18 57.03061 12.36520 19262 ft 387 kts 176°
2026-04-26 19:18 57.00393 12.37172 19274 ft 387 kts 176°
2026-04-26 19:19 56.97724 12.37825 19274 ft 387 kts 176°
2026-04-26 19:19 56.95055 12.38486 19274 ft 387 kts 176°
2026-04-26 19:19 56.92386 12.39148 19274 ft 387 kts 176°
2026-04-26 19:19 56.89717 12.39811 19274 ft 387 kts 176°
2026-04-26 19:20 56.87047 12.40469 19278 ft 387 kts 176°
2026-04-26 19:20 56.85243 12.40913 19276 ft 387 kts 176°
2026-04-26 19:20 56.81705 12.41783 19277 ft 387 kts 176°
2026-04-26 19:20 56.79037 12.42435 19278 ft 387 kts 176°
2026-04-26 19:21 56.76364 12.43089 19281 ft 387 kts 176°
2026-04-26 19:21 56.73694 12.43748 19259 ft 387 kts 176°
2026-04-26 19:21 56.71026 12.44406 19263 ft 387 kts 176°
2026-04-26 19:21 56.68364 12.45056 19253 ft 381 kts 176°
2026-04-26 19:22 56.65779 12.45688 19132 ft 369 kts 176°
2026-04-26 19:22 56.63265 12.46305 18938 ft 362 kts 176°
2026-04-26 19:22 56.60778 12.46911 18702 ft 359 kts 176°
2026-04-26 19:22 56.58306 12.47506 18402 ft 358 kts 176°
2026-04-26 19:23 56.55841 12.48098 17945 ft 357 kts 176°
2026-04-26 19:23 56.53381 12.48687 17494 ft 356 kts 176°
2026-04-26 19:23 56.50932 12.49273 17043 ft 355 kts 176°
2026-04-26 19:23 56.48488 12.49858 16648 ft 352 kts 176°
2026-04-26 19:24 56.46070 12.50437 16195 ft 352 kts 176°
2026-04-26 19:24 56.43652 12.51015 15886 ft 347 kts 176°
2026-04-26 19:24 56.38916 12.52162 15219 ft 340 kts 176°
2026-04-26 19:25 56.36576 12.52722 14787 ft 338 kts 176°
2026-04-26 19:25 56.35035 12.53087 14442 ft 337 kts 176°
2026-04-26 19:25 56.31939 12.53820 13745 ft 334 kts 176°
2026-04-26 19:25 56.29651 12.54365 13208 ft 331 kts 176°
2026-04-26 19:26 56.27381 12.54910 12713 ft 327 kts 176°
2026-04-26 19:26 56.25135 12.55446 12204 ft 324 kts 176°
2026-04-26 19:26 56.22909 12.55977 11716 ft 321 kts 176°
2026-04-26 19:26 56.20707 12.56499 11235 ft 318 kts 175°
2026-04-26 19:27 56.18524 12.57015 10724 ft 316 kts 176°
2026-04-26 19:27 56.16347 12.57412 10352 ft 312 kts 183°
2026-04-26 19:27 56.14187 12.57420 10023 ft 310 kts 184°
2026-04-26 19:27 56.12070 12.57435 9685 ft 307 kts 183°
2026-04-26 19:28 56.09945 12.57457 9358 ft 304 kts 183°
2026-04-26 19:28 56.07840 12.57480 9031 ft 301 kts 183°
2026-04-26 19:28 56.05755 12.57501 8715 ft 298 kts 183°
2026-04-26 19:28 56.03692 12.57520 8404 ft 295 kts 183°
2026-04-26 19:29 56.01648 12.57537 8260 ft 293 kts 183°
2026-04-26 19:29 55.99610 12.57553 8274 ft 293 kts 183°
2026-04-26 19:29 55.97569 12.57576 8276 ft 294 kts 183°
2026-04-26 19:29 55.95525 12.57601 8275 ft 293 kts 183°
2026-04-26 19:30 55.93483 12.57625 8274 ft 294 kts 183°
2026-04-26 19:30 55.91440 12.57646 8270 ft 294 kts 183°
2026-04-26 19:30 55.89394 12.57663 8273 ft 294 kts 183°
2026-04-26 19:30 55.88039 12.57646 8270 ft 293 kts 187°
2026-04-26 19:31 55.85450 12.56600 8273 ft 286 kts 205°
2026-04-26 19:31 55.83581 12.55370 8283 ft 287 kts 205°
2026-04-26 19:31 55.81705 12.54150 8277 ft 287 kts 205°
2026-04-26 19:31 55.79831 12.52938 8276 ft 286 kts 205°
2026-04-26 19:32 55.77964 12.51735 8062 ft 285 kts 204°
2026-04-26 19:32 55.76107 12.50541 7794 ft 283 kts 204°
2026-04-26 19:32 55.74260 12.49355 7553 ft 281 kts 204°
2026-04-26 19:32 55.72433 12.48180 7275 ft 279 kts 204°
2026-04-26 19:33 55.70612 12.47010 6983 ft 276 kts 204°
2026-04-26 19:33 55.68821 12.45861 6777 ft 270 kts 204°
2026-04-26 19:33 55.67081 12.44749 6642 ft 261 kts 204°
2026-04-26 19:33 55.65399 12.43671 6509 ft 253 kts 204°
2026-04-26 19:34 55.63769 12.42623 6353 ft 245 kts 204°
2026-04-26 19:34 55.62181 12.41601 6130 ft 241 kts 204°
2026-04-26 19:34 55.60619 12.40547 5837 ft 238 kts 210°
2026-04-26 19:34 55.59240 12.38998 5539 ft 232 kts 224°
2026-04-26 19:35 55.58055 12.37150 5409 ft 223 kts 225°
2026-04-26 19:35 55.56903 12.35381 5217 ft 217 kts 225°
2026-04-26 19:35 55.55768 12.33645 4956 ft 215 kts 225°
2026-04-26 19:35 55.54641 12.31923 4670 ft 213 kts 225°
2026-04-26 19:36 55.53538 12.30241 4395 ft 212 kts 224°
2026-04-26 19:36 55.52755 12.29162 4205 ft 213 kts 213°
2026-04-26 19:36 55.50806 12.28761 3800 ft 221 kts 165°
2026-04-26 19:36 55.49533 12.30254 3496 ft 224 kts 131°
2026-04-26 19:37 55.48898 12.32725 3177 ft 224 kts 94°
2026-04-26 19:37 55.49009 12.35435 2867 ft 222 kts 78°
2026-04-26 19:37 55.49316 12.38075 2570 ft 222 kts 75°
2026-04-26 19:37 55.49655 12.40733 2277 ft 222 kts 76°
2026-04-26 19:38 55.50006 12.43374 2058 ft 220 kts 76°
2026-04-26 19:38 55.50398 12.45920 1988 ft 209 kts 65°
2026-04-26 19:38 55.51189 12.47984 2000 ft 200 kts 40°
2026-04-26 19:38 55.52220 12.49582 1911 ft 192 kts 38°
2026-04-26 19:39 55.53222 12.51118 1631 ft 189 kts 38°
2026-04-26 19:39 55.54190 12.52605 1380 ft 180 kts 38°
2026-04-26 19:39 55.55111 12.54022 1142 ft 169 kts 38°
2026-04-26 19:39 55.55968 12.55341 916 ft 158 kts 38°
2026-04-26 19:40 55.56773 12.56581 697 ft 150 kts 40°
2026-04-26 19:40 55.57547 12.57775 493 ft 146 kts 41°
2026-04-26 19:40 55.58304 12.58936 303 ft 143 kts 42°
2026-04-26 19:40 55.59049 12.60082 116 ft 141 kts 42°
2026-04-26 19:41 55.59759 12.61185 22 ft 124 kts 40°
2026-04-26 19:41 55.60277 12.61985 24 ft 74 kts 41°
2026-04-26 19:41 55.60552 12.62408 26 ft 43 kts 41°
2026-04-26 19:41 55.60694 12.62626 26 ft 39 kts 40°
2026-04-26 19:42 55.60946 12.62855 25 ft 23 kts 11°
2026-04-26 19:42 55.61066 12.62900 24 ft 8 kts 11°
2026-04-26 19:42 55.61085 12.62906 24 ft 0 kts 11°
2026-04-26 19:43 55.61096 12.62910 24 ft 3 kts 10°
2026-04-26 19:44 55.61127 12.62928 24 ft 7 kts 31°
2026-04-26 19:44 55.61182 12.63008 24 ft 14 kts 37°
2026-04-26 19:44 55.61267 12.63132 24 ft 17 kts 40°
2026-04-26 19:44 55.61366 12.63287 26 ft 21 kts 41°
2026-04-26 19:45 55.61481 12.63466 24 ft 24 kts 41°
2026-04-26 19:45 55.61613 12.63670 26 ft 27 kts 40°
2026-04-26 19:45 55.61745 12.63871 25 ft 22 kts 41°
2026-04-26 19:45 55.61870 12.64059 24 ft 25 kts 34°
2026-04-26 19:46 55.62005 12.64181 24 ft 22 kts 25°
2026-04-26 19:46 55.62146 12.64300 23 ft 22 kts 26°
2026-04-26 19:46 55.62291 12.64402 23 ft 22 kts 14°
2026-04-26 19:46 55.62414 12.64458 24 ft 14 kts 16°
2026-04-26 19:47 55.62493 12.64470 26 ft 11 kts 336°
2026-04-26 19:47 55.62512 12.64439 24 ft 11 kts 309°
2026-04-26 19:47 55.62582 12.64273 24 ft 9 kts 330°
2026-04-26 19:47 55.62639 12.64292 26 ft 8 kts 24°
2026-04-26 19:48 55.62688 12.64329 24 ft 7 kts 23°
2026-04-26 19:48 55.62702 12.64339 25 ft 2 kts 22°
2026-04-26 19:48 55.62716 12.64363 24 ft 4 kts 50°
2026-04-26 19:48 55.62719 12.64405 24 ft 3 kts 97°
2026-04-26 19:49 55.62715 12.64439 24 ft 2 kts 101°
2026-04-26 19:49 55.62713 12.64458 24 ft 1 kts 101°
2026-04-26 19:49 55.62712 12.64467 24 ft 0 kts 101°
2026-04-26 19:49 55.62712 12.64468 24 ft 0 kts 101°